World > North America > United States > New York
Hourly Weather in Westview, New YorkWestview, New York Hourly Weather

Westview, NY Hourly Weather

Hourly Weather Westview, New YorkHourly Weather in Westview, NY
Lat: 42.12N, Lon: 75.93W  ICAO: KBGM
Web Search

Our weather pages are very print friendly and they make great conversation starters.

Feedback

Westview Hourly Weather

36 Hour Weather Scroll   °F Click to change Westview hourly weather to Imperial units.Click to change Westview hourly weather to Metric units. °C
Currently, Clear, temperature is 59°F15°C, dew point 55°F13°C, humidity 87%. Wind direction is N at 0 mph0 km/h with visibility of 10.00 mi16 km. Barometric pressure is 29.8 in1009 mb.

Sep 28
6:00 AM

Sep 28
7:00 AM

Sep 28
8:00 AM

Sep 28
9:00 AM

Sep 28
10:00 AM

Sep 28
11:00 AM

Sep 28
NOON

Sep 28
1:00 PM

Sep 28
2:00 PM

Sep 28
3:00 PM

Sep 28
4:00 PM

Sep 28
5:00 PM

Sep 28
6:00 PM

Sep 28
7:00 PM

Sep 28
8:00 PM

Sep 28
9:00 PM

Sep 28
10:00 PM

Sep 28
11:00 PM

Sep 29
MIDNIGHT

Sep 29
1:00 AM

Sep 29
2:00 AM

Sep 29
3:00 AM

Sep 29
4:00 AM

Sep 29
5:00 AM

Sep 29
6:00 AM

Sep 29
7:00 AM

Sep 29
8:00 AM

Sep 29
9:00 AM

Sep 29
10:00 AM

Sep 29
11:00 AM

Sep 29
NOON

Sep 29
1:00 PM

Sep 29
2:00 PM

Sep 29
3:00 PM

Sep 29
4:00 PM

Sep 29
5:00 PM
Cloudy Cloudy Cloudy Cloudy Cloudy Cloudy Cloudy Mostly Cloudy Mostly Cloudy Mostly Cloudy Mostly Clear Mostly Clear Mostly Clear Mostly Clear Mostly Clear Mostly Clear Mostly Clear Mostly Clear Mostly Clear Clear Clear Clear Clear Clear Clear Clear Clear Clear Mostly Clear Mostly Clear Mostly Clear Mostly Cloudy Mostly Cloudy Mostly Cloudy Mostly Clear Mostly Clear
Cloudy Cloudy Cloudy Cloudy Cloudy Cloudy Cloudy Mostly Cloudy Mostly Cloudy Mostly Cloudy Mostly Clear Mostly Clear Mostly Clear Mostly Clear Mostly Clear Mostly Clear Mostly Clear Mostly Clear Mostly Clear Clear Clear Clear Clear Clear Clear Clear Clear Clear Mostly Clear Mostly Clear Mostly Clear Mostly Cloudy Mostly Cloudy Mostly Cloudy Mostly Clear Mostly Clear
59°F15°C 58°F14°C 58°F14°C 58°F14°C 58°F14°C 58°F14°C 58°F14°C 59°F15°C 59°F15°C 59°F15°C 59°F15°C 59°F15°C 57°F14°C 55°F13°C 53°F12°C 52°F11°C 50°F10°C 49°F9°C 48°F9°C 47°F8°C 46°F8°C 46°F8°C 45°F7°C 45°F7°C 45°F7°C 45°F7°C 45°F7°C 48°F9°C 51°F11°C 54°F12°C 55°F13°C 55°F13°C 56°F13°C 56°F13°C 55°F13°C 55°F13°C
Rain Rain Rain Rain Rain Rain Rain Rain Rain - - - - - - - - - - - - - - - - - - - - - - - - - - -
48% 48% 48% 27% 27% 27% 27% 27% 27% 1% 1% 1% 1% 1% 1% 1% 1% 1% 1% 1% 1% 4% 4% 4% 4% 4% 4% 1% 1% 1% 1% 1% 1% 0% 0% 0%
54°F12°C 54°F12°C 54°F12°C 54°F12°C 54°F12°C 54°F12°C 53°F12°C 53°F12°C 52°F11°C 51°F11°C 49°F9°C 48°F9°C 47°F8°C 46°F8°C 45°F7°C 44°F7°C 44°F7°C 43°F6°C 43°F6°C 42°F6°C 42°F6°C 42°F6°C 41°F5°C 41°F5°C 41°F5°C 42°F6°C 42°F6°C 43°F6°C 43°F6°C 44°F7°C 44°F7°C 43°F6°C 43°F6°C 43°F6°C 42°F6°C 42°F6°C
83% 87% 87% 87% 87% 87% 83% 80% 78% 75% 69% 67% 69% 72% 74% 74% 80% 80% 83% 83% 86% 86% 86% 86% 86% 89% 89% 83% 74% 69% 66% 64% 62% 62% 61% 61%
SSW W NW NW NW NNW NNW NNW NNW NNW NNW NNW NNW NNW NNW NNW NNW NW NW NW NW NW NW NW NW W W WNW NW NW NW NNW NNW NNW NNW NNW
6 mph 5 mph 5 mph 5 mph 8 mph 8 mph 8 mph 10 mph 10 mph 10 mph 8 mph 8 mph 8 mph 8 mph 8 mph 8 mph 5 mph 5 mph 5 mph 4 mph 4 mph 4 mph 4 mph 4 mph 4 mph 5 mph 5 mph 5 mph 8 mph 8 mph 8 mph 13 mph 13 mph 13 mph 11 mph 11 mph
6 mi10 km 6 mi10 km 5 mi8 km 6 mi10 km 6 mi10 km 10 mi16 km 10 mi16 km 10 mi16 km 10 mi16 km 10 mi16 km 10 mi16 km 10 mi16 km 10 mi16 km 10 mi16 km 10 mi16 km 10 mi16 km 10 mi16 km 10 mi16 km 10 mi16 km 10 mi16 km 10 mi16 km 10 mi16 km 10 mi16 km 10 mi16 km 10 mi16 km 10 mi16 km 10 mi16 km 10 mi16 km 10 mi16 km 10 mi16 km 10 mi16 km 10 mi16 km 10 mi16 km 10 mi16 km 10 mi16 km 10 mi16 km
Hour (EDT)
Weather
Clouds
Temperature
Precip. Type
POP
Dewpoint
Humidity
Wind Direction
Wind Speed
Visibility
POP = Probability of Precipitation. ** Indicates missing data/values from model statistics.

24 Hour Forecast

Today - Mostly cloudy with a chance of showers this morning, then partly sunny this afternoon. Highs in the mid 60s. Northwest winds 5 to 10 mph. Chance of rain 50%.
Tonight - Mostly clear. Lows in the lower 40s. Northwest winds 5 to 10 mph.

48 Hour Forecast API Feed


Tue, Sep 28
6:00 am

Tue, Sep 28
7:00 am

Tue, Sep 28
8:00 am

Tue, Sep 28
9:00 am

Tue, Sep 28
10:00 am

Tue, Sep 28
11:00 am

Tue, Sep 28
Noon

Tue, Sep 28
1:00 pm

Tue, Sep 28
2:00 pm

Tue, Sep 28
3:00 pm

Tue, Sep 28
4:00 pm

Tue, Sep 28
5:00 pm

Tue, Sep 28
6:00 pm

Tue, Sep 28
7:00 pm

Tue, Sep 28
8:00 pm

Tue, Sep 28
9:00 pm

Tue, Sep 28
10:00 pm

Tue, Sep 28
11:00 pm

Wed, Sep 29
Midnight

Wed, Sep 29
1:00 am

Wed, Sep 29
2:00 am

Wed, Sep 29
3:00 am

Wed, Sep 29
4:00 am

Wed, Sep 29
5:00 am

Wed, Sep 29
6:00 am

Wed, Sep 29
7:00 am

Wed, Sep 29
8:00 am

Wed, Sep 29
9:00 am

Wed, Sep 29
10:00 am

Wed, Sep 29
11:00 am

Wed, Sep 29
Noon

Wed, Sep 29
1:00 pm

Wed, Sep 29
2:00 pm

Wed, Sep 29
3:00 pm

Wed, Sep 29
4:00 pm

Wed, Sep 29
5:00 pm

Wed, Sep 29
6:00 pm

Wed, Sep 29
7:00 pm

Wed, Sep 29
8:00 pm

Wed, Sep 29
9:00 pm

Wed, Sep 29
10:00 pm

Wed, Sep 29
11:00 pm

Thu, Sep 30
Midnight

Thu, Sep 30
1:00 am

Thu, Sep 30
2:00 am

Thu, Sep 30
3:00 am

Thu, Sep 30
4:00 am

Thu, Sep 30
5:00 am
Light Rain ShowerLight Rain ShowerLight Rain ShowerFogFogPatchy Rain PossiblePartly CloudyPartly CloudyPatchy Rain PossiblePartly CloudyPartly CloudyPartly CloudyPartly CloudyPartly CloudyPartly CloudyPartly CloudyPartly CloudyPartly CloudyPartly CloudyPartly CloudyMistMistMistMistMistMistSunnyPartly CloudyPartly CloudyPartly CloudyPartly CloudyCloudyPartly CloudyPartly CloudyPartly CloudyPartly CloudyPartly CloudyPartly CloudyPartly CloudyPartly CloudyPartly CloudyCloudyCloudyCloudyCloudyPartly CloudyCloudyOvercast
Light rain showers Light rain showers Light rain showers Fog Fog Patchy rain possible Partly cloudy Partly cloudy Patchy rain possible Partly cloudy Partly cloudy Partly cloudy Partly cloudy Partly cloudy Partly cloudy Partly cloudy Partly cloudy Partly cloudy Partly cloudy Partly cloudy Mist Mist Mist Mist Mist Mist Sunny Partly cloudy Partly cloudy Partly cloudy Partly cloudy Cloudy Partly cloudy Partly cloudy Partly cloudy Partly cloudy Partly cloudy Partly cloudy Partly cloudy Partly cloudy Partly cloudy Cloudy Cloudy Cloudy Cloudy Partly cloudy Cloudy Overcast
59°F
15°C
59°F
15°C
60°F
15°C
60°F
16°C
60°F
15°C
59°F
15°C
59°F
15°C
62°F
17°C
65°F
18°C
65°F
18°C
64°F
18°C
62°F
17°C
59°F
15°C
54°F
12°C
47°F
8°C
45°F
7°C
43°F
6°C
42°F
5°C
42°F
5°C
40°F
4°C
40°F
4°C
39°F
4°C
39°F
4°C
38°F
4°C
38°F
3°C
38°F
3°C
41°F
5°C
49°F
10°C
54°F
12°C
58°F
14°C
60°F
16°C
61°F
16°C
62°F
17°C
62°F
17°C
62°F
17°C
61°F
16°C
56°F
13°C
48°F
9°C
43°F
6°C
42°F
5°C
41°F
5°C
40°F
5°C
41°F
5°C
44°F
6°C
44°F
7°C
44°F
7°C
42°F
6°C
43°F
6°C
58°F
15°C
58°F
15°C
59°F
15°C
60°F
15°C
59°F
15°C
57°F
14°C
56°F
13°C
55°F
13°C
53°F
12°C
51°F
11°C
50°F
10°C
51°F
11°C
51°F
11°C
47°F
9°C
42°F
6°C
41°F
5°C
40°F
4°C
39°F
4°C
39°F
4°C
38°F
4°C
38°F
3°C
38°F
3°C
37°F
3°C
37°F
3°C
37°F
3°C
36°F
2°C
38°F
4°C
43°F
6°C
45°F
7°C
46°F
8°C
45°F
7°C
45°F
7°C
44°F
7°C
44°F
7°C
46°F
8°C
48°F
9°C
46°F
8°C
41°F
5°C
39°F
4°C
38°F
4°C
38°F
3°C
38°F
3°C
38°F
3°C
38°F
4°C
38°F
4°C
39°F
4°C
39°F
4°C
41°F
5°C
29.8 in
1009 mb
29.83 in
1010 mb
29.83 in
1010 mb
29.85 in
1011 mb
29.85 in
1011 mb
29.88 in
1012 mb
29.88 in
1012 mb
29.88 in
1012 mb
29.88 in
1012 mb
29.88 in
1012 mb
29.88 in
1012 mb
29.88 in
1012 mb
29.91 in
1013 mb
29.94 in
1014 mb
29.97 in
1015 mb
29.97 in
1015 mb
30 in
1016 mb
30 in
1016 mb
30 in
1016 mb
30 in
1016 mb
30 in
1016 mb
30 in
1016 mb
30.03 in
1017 mb
30.03 in
1017 mb
30.06 in
1018 mb
30.06 in
1018 mb
30.06 in
1018 mb
30.06 in
1018 mb
30.06 in
1018 mb
30.06 in
1018 mb
30.03 in
1017 mb
30.03 in
1017 mb
30 in
1016 mb
30 in
1016 mb
30 in
1016 mb
30.03 in
1017 mb
30.03 in
1017 mb
30.06 in
1018 mb
30.09 in
1019 mb
30.12 in
1020 mb
30.12 in
1020 mb
30.12 in
1020 mb
30.12 in
1020 mb
30.12 in
1020 mb
30.12 in
1020 mb
30.12 in
1020 mb
30.12 in
1020 mb
30.15 in
1021 mb
97%98%97%97%97%95%89%77%65%61%61%67%74%79%84%86%87%91%90%94%94%95%95%95%94%95%89%78%70%65%58%55%52%51%55%62%68%76%85%88%90%90%89%82%82%82%87%90%
WSWWSWWWNWNWNWNWNNWNNWNNWNNWNNWNNWNNWNNWNNWNNWNNWNWNWNWNWNWWNWWNWWNWWNWNWNWNWNNWNNWNNWNNWNNWNNWNNWNNWNNWNNWNWNWNNWNWNWNWNWNW
4 mph
6 km/h
2 mph
4 km/h
3 mph
5 km/h
5 mph
9 km/h
7 mph
11 km/h
8 mph
13 km/h
8 mph
12 km/h
9 mph
14 km/h
9 mph
15 km/h
10 mph
16 km/h
10 mph
17 km/h
9 mph
15 km/h
10 mph
15 km/h
8 mph
13 km/h
6 mph
9 km/h
6 mph
9 km/h
5 mph
8 km/h
4 mph
6 km/h
3 mph
5 km/h
3 mph
5 km/h
3 mph
5 km/h
3 mph
5 km/h
3 mph
4 km/h
3 mph
4 km/h
3 mph
4 km/h
3 mph
4 km/h
2 mph
4 km/h
4 mph
6 km/h
7 mph
11 km/h
9 mph
15 km/h
11 mph
17 km/h
12 mph
19 km/h
13 mph
21 km/h
13 mph
21 km/h
12 mph
19 km/h
10 mph
17 km/h
9 mph
14 km/h
6 mph
10 km/h
4 mph
7 km/h
4 mph
6 km/h
2 mph
4 km/h
2 mph
4 km/h
3 mph
5 km/h
3 mph
4 km/h
3 mph
4 km/h
3 mph
5 km/h
4 mph
6 km/h
4 mph
6 km/h
73%74%88%0%0%82%0%0%73%0%0%0%0%0%0%0%0%0%0%0%0%0%0%0%0%0%0%0%0%0%0%0%0%0%0%0%0%0%0%0%0%0%0%0%0%0%0%0%
6 mi
10 km
6 mi
10 km
6 mi
10 km
0 mi
0 km
0 mi
0 km
6 mi
10 km
6 mi
10 km
6 mi
10 km
6 mi
10 km
6 mi
10 km
6 mi
10 km
6 mi
10 km
6 mi
10 km
6 mi
10 km
6 mi
10 km
6 mi
10 km
6 mi
10 km
6 mi
10 km
6 mi
10 km
6 mi
10 km
1 mi
2 km
1 mi
2 km
1 mi
2 km
1 mi
2 km
1 mi
2 km
1 mi
2 km
6 mi
10 km
6 mi
10 km
6 mi
10 km
6 mi
10 km
6 mi
10 km
6 mi
10 km
6 mi
10 km
6 mi
10 km
6 mi
10 km
6 mi
10 km
6 mi
10 km
6 mi
10 km
6 mi
10 km
6 mi
10 km
6 mi
10 km
6 mi
10 km
6 mi
10 km
6 mi
10 km
6 mi
10 km
6 mi
10 km
6 mi
10 km
6 mi
10 km

Day/Time
Weather
Condition
Temperature
Dew Point
Pressure
Humidity
Wind Direction
Wind Speed
Prob Precip %
Visibility
Prob Precip % = Probability of Precipitation.